MILESOVKA Weather Reports


Display with metric or nautical units.
time (UTC)temp
F
wind
direction
speed
MPH
gust
MPH
rain 1hr
in
rain 24hr
in
rain mn
in
humidity
%
barometer
mb
20260902131945 70 220 7.0 0.0 0.00 0.00 0.00 56
20260902121746 68 230 9.0 0.0 0.00 0.00 0.00 60
20260902111945 68 220 9.0 0.0 0.00 0.00 0.00 64
20260902102046 64 220 7.0 0.0 0.00 0.00 0.00 77
20260902091746 61 240 2.0 0.0 0.00 0.00 0.00 87
20260902081945 61 190 2.0 0.0 0.00 0.00 0.00 82
20260902071844 55 220 5.0 0.0 0.00 0.00 0.00 93
20260902061745 54 280 7.0 0.0 0.00 0.00 0.00 93
20260902051928 54 290 14.0 0.0 0.00 0.00 0.00 93
20260902042046 55 290 14.0 0.0 0.00 0.00 0.00 87
20260902031744 54 300 12.0 0.0 0.00 0.00 0.00 99
20260902021945 55 300 14.0 0.0 0.00 0.00 0.00 93
20260902011945 55 310 9.0 0.0 0.00 0.00 0.00 93
20260902001745 57 290 14.0 0.0 0.00 0.00 0.00 87
20260901231930 59 290 20.0 0.0 0.00 0.00 0.00 77
20260901222045 59 280 18.0 0.0 0.00 0.00 0.00 77
20260901211745 59 290 16.0 0.0 0.00 0.00 0.00 77
20260901201944 61 280 18.0 0.0 0.00 0.00 0.00 72
20260901191945 61 290 14.0 0.0 0.00 0.00 0.00 72
20260901181744 61 280 12.0 0.0 0.00 0.00 0.00 72
20260901171945 63 280 9.0 0.0 0.00 0.00 0.00 72
20260901162046 64 270 7.0 0.0 0.00 0.00 0.00 67
20260901151745 64 260 9.0 0.0 0.00 0.00 0.00 63
20260901141945 68 270 12.0 0.0 0.00 0.00 0.00 60